Location: City of Moscow
(46.7306°N, 116.9989°W)
Time: 20:14:23
(UTC+00:00)

Cosmos 2333 Rocket - Pass Details

Date: 11 December 2025
Orbit: 837 x 865 km, 70.8° (Epoch: 12 January)

Event Time Altitude Azimuth Distance (km) Brightness Sun altitude
Exits shadow 14:11:56 14° 307° (NW) 2,220 3.8 -11.6°
Maximum altitude 14:15:46 28° 257° (WSW) 1,572 3.2 -11.0°
Drops below altitude 10° 14:20:31 10° 200° (SSW) 2,486 4.7 -10.3°
Sets 14:23:16 0° 189° (S) 3,413 5.6 -9.8°
